�������l�o���
Date,Time,MP-1(��Sv/h),MP-2(��Sv/h),MP-3(��Sv/h),MP-4(��Sv/h),MP-5(��Sv/h),MP-6(��Sv/h),MP-7(��Sv/h),MP-8(��Sv/h),����,����(m/s),���J
2018/07/23,00:00,0.915,1.304,0.907,1.623,1.160,0.485,0.851,0.800,�k��,4.1,��
2018/07/23,00:10,0.918,1.304,0.908,1.624,1.156,0.483,0.850,0.801,�k��,3.9,��
2018/07/23,00:20,0.918,1.305,0.911,1.624,1.161,0.482,0.850,0.800,�k��,4.1,��
2018/07/23,00:30,0.917,1.306,0.909,1.623,1.159,0.481,0.849,0.801,�k��,3.3,��
2018/07/23,00:40,0.919,1.306,0.909,1.624,1.158,0.485,0.850,0.801,�k��,3.2,��
2018/07/23,00:50,0.917,1.307,0.909,1.622,1.158,0.483,0.851,0.802,�k�k��,2.6,��
2018/07/23,01:00,0.917,1.304,0.908,1.623,1.160,0.484,0.849,0.799,�k��,2.8,��
2018/07/23,01:10,0.918,1.306,0.908,1.624,1.159,0.484,0.848,0.799,���k��,3.6,��
2018/07/23,01:20,0.918,1.306,0.907,1.626,1.159,0.484,0.850,0.801,���k��,3.6,��
2018/07/23,01:30,0.918,1.306,0.909,1.623,1.158,0.482,0.849,0.801,��,3.4,��
2018/07/23,01:40,0.919,1.306,0.910,1.623,1.160,0.482,0.849,0.800,��,3.6,��
2018/07/23,01:50,0.915,1.302,0.908,1.624,1.159,0.484,0.848,0.801,��,3.8,��
2018/07/23,02:00,0.917,1.305,0.909,1.624,1.160,0.483,0.848,0.801,��,5.1,��
2018/07/23,02:10,0.919,1.303,0.908,1.625,1.158,0.483,0.852,0.801,���k��,4.7,��
2018/07/23,02:20,0.918,1.302,0.907,1.625,1.160,0.484,0.850,0.801,�k�k��,2.8,��
2018/07/23,02:30,0.917,1.306,0.909,1.621,1.159,0.483,0.851,0.801,�k�k��,2.9,��
2018/07/23,02:40,0.917,1.304,0.908,1.626,1.161,0.483,0.851,0.801,�k�k��,3.7,��
2018/07/23,02:50,0.918,1.304,0.908,1.622,1.159,0.484,0.850,0.801,�k,3.2,��
2018/07/23,03:00,0.919,1.304,0.909,1.624,1.159,0.485,0.850,0.800,�k,2.9,��
2018/07/23,03:10,0.917,1.305,0.909,1.625,1.158,0.483,0.851,0.801,�k�k��,3.4,��
2018/07/23,03:20,0.916,1.303,0.910,1.622,1.161,0.484,0.850,0.802,�k,1.9,��
2018/07/23,03:30,0.918,1.305,0.909,1.620,1.161,0.486,0.850,0.801,�k,1.9,��
2018/07/23,03:40,0.918,1.303,0.908,1.623,1.157,0.483,0.850,0.800,�k��,1.7,��
2018/07/23,03:50,0.916,1.301,0.907,1.624,1.155,0.481,0.851,0.801,�k��,1.2,��
2018/07/23,04:00,0.915,1.304,0.909,1.623,1.158,0.484,0.849,0.800,���k��,1.4,��
2018/07/23,04:10,0.916,1.303,0.908,1.623,1.158,0.483,0.849,0.803,���k��,4.1,��
2018/07/23,04:20,0.917,1.304,0.908,1.623,1.161,0.483,0.850,0.800,���k��,4.5,��
2018/07/23,04:30,0.916,1.304,0.907,1.624,1.158,0.483,0.850,0.802,���k��,3.5,��
2018/07/23,04:40,0.918,1.305,0.906,1.623,1.157,0.483,0.850,0.801,���k��,3.1,��
2018/07/23,04:50,0.916,1.304,0.909,1.623,1.160,0.482,0.851,0.802,��,2.6,��
2018/07/23,05:00,0.918,1.304,0.907,1.625,1.157,0.482,0.848,0.800,��,2.6,��
2018/07/23,05:10,0.916,1.305,0.906,1.623,1.160,0.483,0.849,0.802,���k��,4.1,��
2018/07/23,05:20,0.916,1.304,0.907,1.624,1.157,0.483,0.851,0.802,���k��,2.9,��
2018/07/23,05:30,0.914,1.305,0.908,1.624,1.161,0.482,0.850,0.803,��,2.2,��
2018/07/23,05:40,0.917,1.305,0.908,1.623,1.158,0.483,0.850,0.802,��,2.3,��
2018/07/23,05:50,0.917,1.305,0.907,1.624,1.157,0.483,0.849,0.800,���쐼,1.5,��
2018/07/23,06:00,0.914,1.303,0.909,1.623,1.159,0.483,0.851,0.803,-,CALM,��
2018/07/23,06:10,0.918,1.305,0.907,1.627,1.161,0.483,0.849,0.801,��쐼,0.8,��
2018/07/23,06:20,0.917,1.304,0.908,1.623,1.156,0.483,0.849,0.800,���쐼,0.9,��
2018/07/23,06:30,0.917,1.304,0.909,1.625,1.161,0.485,0.850,0.800,���k��,2.5,��
2018/07/23,06:40,0.917,1.305,0.908,1.620,1.159,0.483,0.849,0.803,���k��,2.8,��
2018/07/23,06:50,0.916,1.306,0.909,1.623,1.157,0.485,0.849,0.802,���쐼,2.9,��
2018/07/23,07:00,0.917,1.306,0.908,1.624,1.157,0.484,0.852,0.801,��,4.1,��
2018/07/23,07:10,0.919,1.304,0.906,1.622,1.160,0.483,0.851,0.803,��,3.3,��
2018/07/23,07:20,0.919,1.304,0.909,1.622,1.161,0.484,0.850,0.802,��,2.8,��
2018/07/23,07:30,0.919,1.300,0.908,1.625,1.159,0.483,0.850,0.801,��,3.0,��
2018/07/23,07:40,0.918,1.298,0.908,1.624,1.157,0.484,0.853,0.803,���k��,2.0,��
2018/07/23,07:50,0.918,1.297,0.909,1.623,1.159,0.484,0.852,0.803,���k��,2.8,��
2018/07/23,08:00,0.916,1.301,0.906,1.624,1.157,0.484,0.853,0.802,��,1.9,��
2018/07/23,08:10,0.917,1.301,0.909,1.623,1.158,0.482,0.853,0.803,��,1.2,��
2018/07/23,08:20,0.916,1.300,0.905,1.626,1.161,0.485,0.852,0.803,��,1.2,��
2018/07/23,08:30,0.916,1.299,0.907,1.625,1.161,0.484,0.853,0.801,��,0.8,��
2018/07/23,08:40,0.916,1.300,0.909,1.625,1.161,0.483,0.854,0.800,�k��,3.3,��
2018/07/23,08:50,0.914,1.300,0.906,1.626,1.161,0.483,0.851,0.800,���k��,3.3,��
2018/07/23,09:00,0.915,1.299,0.907,1.625,1.157,0.483,0.851,0.799,���k��,2.6,��
2018/07/23,09:10,0.912,1.300,0.906,1.624,1.160,0.484,0.853,0.801,���k��,2.9,��
2018/07/23,09:20,0.914,1.300,0.904,1.626,1.161,0.481,0.852,0.800,���k��,3.6,��
2018/07/23,09:30,0.913,1.298,0.906,1.622,1.159,0.481,0.851,0.800,���k��,3.5,��
2018/07/23,09:40,0.912,1.301,0.908,1.626,1.160,0.482,0.851,0.798,��,4.0,��
2018/07/23,09:50,0.913,1.302,0.907,1.625,1.164,0.481,0.853,0.799,��,3.8,��
2018/07/23,10:00,0.912,1.303,0.908,1.622,1.161,0.480,0.851,0.800,��,3.1,��
2018/07/23,10:10,0.912,1.309,0.908,1.624,1.162,0.481,0.852,0.801,��,2.6,��
2018/07/23,10:20,0.912,1.306,0.907,1.625,1.161,0.483,0.851,0.800,��,2.5,��
2018/07/23,10:30,0.910,1.301,0.906,1.627,1.160,0.482,0.849,0.799,���쓌,2.6,��
2018/07/23,10:40,0.912,1.301,0.905,1.625,1.161,0.483,0.849,0.800,��,2.2,��
2018/07/23,10:50,0.913,1.299,0.907,1.626,1.162,0.481,0.850,0.800,���k��,2.3,��
2018/07/23,11:00,0.909,1.300,0.909,1.627,1.163,0.483,0.849,0.801,���k��,2.3,��
2018/07/23,11:10,0.912,1.303,0.908,1.627,1.160,0.482,0.849,0.801,���k��,1.9,��
2018/07/23,11:20,0.912,1.298,0.906,1.627,1.163,0.481,0.850,0.802,��,2.3,��
2018/07/23,11:30,0.912,1.301,0.908,1.625,1.164,0.480,0.851,0.800,���k��,1.2,��
2018/07/23,11:40,0.910,1.299,0.908,1.625,1.162,0.481,0.849,0.800,��,2.2,��
2018/07/23,11:50,0.912,1.304,0.911,1.626,1.164,0.482,0.849,0.800,���k��,2.5,��
2018/07/23,12:00,0.913,1.302,0.910,1.628,1.163,0.480,0.850,0.802,���k��,2.2,��
2018/07/23,12:10,0.912,1.302,0.909,1.627,1.163,0.481,0.849,0.799,�k��,2.9,��
2018/07/23,12:20,0.913,1.304,0.907,1.628,1.164,0.481,0.850,0.803,�k��,2.3,��
2018/07/23,12:30,0.910,1.300,0.908,1.626,1.166,0.482,0.848,0.800,���k��,3.2,��
2018/07/23,12:40,0.911,1.300,0.910,1.625,1.166,0.482,0.849,0.800,�k��,2.3,��
2018/07/23,12:50,0.913,1.303,0.909,1.624,1.166,0.482,0.852,0.800,�k��,3.8,��
2018/07/23,13:00,0.910,1.300,0.908,1.627,1.166,0.480,0.850,0.802,�k��,5.0,��
2018/07/23,13:10,0.912,1.303,0.908,1.625,1.166,0.481,0.849,0.801,�k��,4.3,��
2018/07/23,13:20,0.911,1.303,0.909,1.626,1.163,0.482,0.849,0.801,���k��,4.7,��
2018/07/23,13:30,0.913,1.300,0.907,1.626,1.163,0.481,0.851,0.800,�k��,4.2,��
2018/07/23,13:40,0.911,1.300,0.908,1.624,1.161,0.481,0.849,0.801,�k�k��,4.4,��
2018/07/23,13:50,0.912,1.301,0.903,1.625,1.163,0.481,0.850,0.800,�k��,3.9,��
2018/07/23,14:00,0.914,1.300,0.907,1.625,1.164,0.482,0.852,0.800,�k��,3.1,��
2018/07/23,14:10,0.913,1.296,0.907,1.627,1.163,0.482,0.849,0.800,�k��,3.2,��
2018/07/23,14:20,0.910,1.299,0.905,1.627,1.163,0.481,0.850,0.800,�k��,3.7,��
2018/07/23,14:30,0.912,1.300,0.906,1.630,1.161,0.483,0.849,0.801,�k�k��,3.3,��
2018/07/23,14:40,0.914,1.298,0.907,1.626,1.162,0.482,0.850,0.802,�k,3.2,��
2018/07/23,14:50,0.911,1.297,0.907,1.628,1.161,0.481,0.850,0.799,�k�k��,2.8,��
2018/07/23,15:00,0.910,1.300,0.905,1.628,1.162,0.483,0.849,0.800,�k�k��,3.0,��
2018/07/23,15:10,0.911,1.302,0.908,1.625,1.163,0.481,0.848,0.800,�k��,3.0,��
2018/07/23,15:20,0.911,1.301,0.906,1.623,1.163,0.481,0.850,0.800,�k�k��,2.9,��
2018/07/23,15:30,0.911,1.301,0.906,1.626,1.162,0.481,0.850,0.800,�k�k��,3.8,��
2018/07/23,15:40,0.911,1.299,0.904,1.625,1.164,0.481,0.848,0.801,�k�k��,2.6,��
2018/07/23,15:50,0.909,1.300,0.904,1.622,1.162,0.481,0.848,0.801,�k�k��,3.7,��
2018/07/23,16:00,0.910,1.300,0.905,1.622,1.159,0.480,0.850,0.799,�k��,3.5,��
2018/07/23,16:10,0.911,1.302,0.905,1.622,1.163,0.481,0.849,0.799,�k��,3.1,��
2018/07/23,16:20,0.908,1.300,0.906,1.625,1.161,0.479,0.848,0.800,�k��,3.1,��
2018/07/23,16:30,0.908,1.301,0.905,1.626,1.160,0.481,0.850,0.800,�k�k��,3.1,��
2018/07/23,16:40,0.908,1.299,0.906,1.627,1.160,0.480,0.849,0.799,�k��,3.5,��
2018/07/23,16:50,0.908,1.299,0.904,1.629,1.159,0.481,0.849,0.800,�k�k��,3.1,��
2018/07/23,17:00,0.911,1.299,0.905,1.625,1.160,0.481,0.848,0.799,�k�k��,3.3,��
2018/07/23,17:10,0.908,1.298,0.905,1.627,1.160,0.480,0.849,0.799,�k�k��,3.3,�L
2018/07/23,17:20,0.908,1.297,0.906,1.624,1.159,0.479,0.850,0.801,�k�k��,3.2,�L
2018/07/23,17:30,0.905,1.297,0.906,1.624,1.161,0.481,0.848,0.798,�k�k��,3.3,�L
2018/07/23,17:40,0.907,1.298,0.907,1.626,1.160,0.481,0.848,0.801,�k�k��,3.4,�L
2018/07/23,17:50,0.906,1.299,0.905,1.624,1.161,0.482,0.847,0.801,�k��,3.6,�L
2018/07/23,18:00,0.907,1.297,0.905,1.626,1.161,0.480,0.848,0.802,�k�k��,3.3,�L
2018/07/23,18:10,0.905,1.294,0.903,1.622,1.156,0.481,0.849,0.800,�k�k��,3.5,�L
2018/07/23,18:20,0.905,1.292,0.903,1.623,1.156,0.480,0.848,0.801,�k�k��,3.2,�L
2018/07/23,18:30,0.904,1.291,0.902,1.626,1.158,0.479,0.848,0.800,�k�k��,2.9,�L
2018/07/23,18:40,0.904,1.290,0.903,1.623,1.156,0.481,0.849,0.800,�k��,2.3,�L
2018/07/23,18:50,0.904,1.291,0.904,1.624,1.156,0.482,0.850,0.801,�k��,2.2,�L
2018/07/23,19:00,0.904,1.291,0.904,1.624,1.156,0.481,0.848,0.798,�k��,2.0,�L
2018/07/23,19:10,0.903,1.289,0.902,1.622,1.156,0.481,0.848,0.801,�k�k��,2.0,��
2018/07/23,19:20,0.902,1.290,0.902,1.621,1.153,0.480,0.848,0.800,�k��,2.2,��
2018/07/23,19:30,0.902,1.287,0.903,1.621,1.157,0.480,0.848,0.802,�k�k��,1.9,��
2018/07/23,19:40,0.902,1.288,0.905,1.618,1.156,0.481,0.848,0.802,�k�k��,2.5,��
2018/07/23,19:50,0.902,1.287,0.903,1.623,1.154,0.482,0.847,0.799,�k��,1.4,��
2018/07/23,20:00,0.901,1.288,0.904,1.622,1.156,0.481,0.849,0.799,���k��,1.4,��
2018/07/23,20:10,0.901,1.290,0.905,1.621,1.154,0.480,0.848,0.801,�k��,1.2,��
2018/07/23,20:20,0.901,1.290,0.905,1.620,1.158,0.480,0.847,0.799,���k��,1.4,��
2018/07/23,20:30,0.902,1.292,0.904,1.617,1.156,0.480,0.848,0.801,���k��,1.4,��
2018/07/23,20:40,0.903,1.289,0.902,1.622,1.155,0.480,0.846,0.801,�k��,1.5,��
2018/07/23,20:50,0.903,1.287,0.903,1.619,1.156,0.481,0.847,0.800,�k��,1.7,��
2018/07/23,21:00,0.901,1.289,0.905,1.621,1.156,0.479,0.847,0.802,���k��,1.2,��
2018/07/23,21:10,0.901,1.287,0.905,1.620,1.154,0.481,0.848,0.801,�k��,1.2,��
2018/07/23,21:20,0.900,1.290,0.905,1.620,1.154,0.481,0.846,0.800,���k��,1.2,��
2018/07/23,21:30,0.901,1.288,0.905,1.620,1.154,0.481,0.846,0.800,���k��,1.5,�L
2018/07/23,21:40,0.901,1.290,0.905,1.620,1.154,0.481,0.848,0.799,�k��,1.5,�L
2018/07/23,21:50,0.902,1.292,0.904,1.620,1.151,0.479,0.845,0.799,���k��,1.2,�L
2018/07/23,22:00,0.899,1.289,0.905,1.617,1.154,0.481,0.848,0.800,���k��,1.1,��
2018/07/23,22:10,0.898,1.288,0.904,1.622,1.149,0.481,0.848,0.801,�k��,1.5,��
2018/07/23,22:20,0.901,1.284,0.903,1.620,1.152,0.482,0.849,0.799,��,0.9,�L
2018/07/23,22:30,0.900,1.286,0.902,1.617,1.152,0.481,0.847,0.800,��,1.4,��
2018/07/23,22:40,0.900,1.284,0.901,1.620,1.152,0.482,0.846,0.799,���쓌,1.2,��
2018/07/23,22:50,0.899,1.284,0.902,1.620,1.152,0.481,0.847,0.799,���쓌,1.2,��
2018/07/23,23:00,0.901,1.285,0.905,1.618,1.150,0.480,0.847,0.801,���쓌,1.2,��
2018/07/23,23:10,0.900,1.283,0.901,1.617,1.150,0.481,0.846,0.800,��,1.5,��
2018/07/23,23:20,0.901,1.286,0.902,1.619,1.152,0.482,0.847,0.800,��,1.2,��
2018/07/23,23:30,0.901,1.285,0.904,1.619,1.152,0.482,0.847,0.797,���쓌,0.8,�L
2018/07/23,23:40,0.899,1.285,0.903,1.619,1.149,0.482,0.846,0.798,��,1.2,��
2018/07/23,23:50,0.898,1.286,0.901,1.620,1.151,0.480,0.846,0.798,��,1.1,��
